Torna al catalogo

OAO 2

AttivoScienzaLEO
NORAD 3597·PAYLOAD·🇺🇸 United States

Lanciato Dec 7, 1968 da Cape Canaveral Space Force Station

Loading…

Prossimi Passaggi (prossime 24 ore)

TLE

AggiornatoSource: Space-Track

Epoca: Sep 14, 2026, 12:39 UTC

1 03597U 68110A   26257.52776748  .00000140  00000-0  42688-4 0  9995
2 03597  34.9936 290.8240 0006043 272.4203  87.5796 14.47379838 46475

Traccia OAO 2 in tempo reale con AllMySat

Download on the App Store